Temp
14 15 15 15 15 17 15 16 17 16 17 18 16 16 17 14 11 8 7 6 6 5 4 4 5 6 7 7 8 9 10 10 12 12 11 10 8 9 9 9 9 10 10 10
14 14 15 15 15 16 15 16 15 15 15 16 15 15 15 14 12 9 8 6 6 5 4 3 4 5 5 6 7 8 9 10 11 11 10 9 8 7 8 8 8 8 9 9
14 17 13 15 14 14 14 14 14 16 15 15 14 14 14 11 8 7 7 6 5 5 4 3 3 4 5 6 6 7 7 8 9 9 9 9 8 7 6 6 6 6 7 7
14 15 15 14 15 14 14 13 14 15 15 15 14 14 14 12 9 7 5 5 4 4 3 3 3 3 4 4 6 7 8 8 8 8 9 9 6 3 2 4 4 5 5 5
15 13 14 14 14 14 15 12 13 14 13 13 14 13 13 12 13 8 5 4 4 3 3 3 2 3 3 5 6 7 7 8 8 9 9 8 5 4 4 4 5 4 4 5
14 14 13 14 13 14 11 12 12 10 11 11 13 14 14 14 13 9 6 5 4 3 2 2 3 3 3 4 5 6 7 6 7 7 7 6 5 4 4 4 4 3 3 3
14 14 14 14 13 14 14 13 13 13 11 13 11 12 14 13 11 10 7 5 4 3 2 2 2 2 3 4 4 5 5 5 5 5 5 5 5 5 4 3 3 3 3 3
12 14 13 13 14 13 12 13 13 13 12 13 10 12 14 10 7 5 6 5 3 3 2 2 2 3 3 3 3 4 4 3 4 4 4 4 4 3 3 2 2 2 2 1
12 14 13 13 13 14 13 13 13 11 2 9 12 13 13 8 8 5 4 4 3 3 2 2 2 3 3 3 3 3 3 3 3 3 3 3 3 3 2 2 2 2 1 1
14 15 13 13 13 13 14 12 13 10 12 9 12 13 15 10 10 6 4 4 4 3 2 2 2 3 3 3 3 2 3 3 2 2 3 3 3 2 2 2 2 2 2 2
13 15 12 12 12 12 12 12 11 12 11 11 10 13 10 12 10 7 5 5 4 4 3 3 2 4 4 3 3 2 2 2 2 2 2 2 2 2 2 2 2 2 1 1
13 12 10 12 11 11 12 12 12 12 11 8 10 14 9 10 8 7 6 5 4 4 4 3 3 3 3 3 3 3 2 2 2 2 2 2 2 2 2 1 1 0 0 -0
12 11 10 11 12 10 10 10 10 10 9 9 11 11 8 7 7 6 6 4 5 4 3 2 2 2 2 3 3 3 3 3 2 2 2 2 1 1 0 -0 -0 -1 -1 -1
14 11 12 16 13 11 10 9 9 12 9 11 13 14 9 9 9 7 6 5 4 4 4 2 1 1 2 3 3 3 3 3 3 2 2 1 1 0 -0 -1 -1 -2 -2 -2
13 12 9 11 12 11 11 10 9 10 12 13 14 12 10 10 8 7 6 5 4 4 3 2 2 1 2 2 3 3 3 3 2 2 1 1 0 -0 -1 -2 -2 -2 -2 -2
9 11 9 8 9 10 10 9 9 11 11 10 11 11 10 9 7 6 6 5 5 4 4 3 2 2 2 2 2 3 3 3 2 2 2 1 -0 -1 -1 -2 -2 -3 -3 -3
9 8 9 12 5 8 9 9 9 10 8 11 9 12 6 7 7 6 5 4 4 4 3 3 2 3 3 3 3 2 3 3 2 2 1 0 -1 -1 -2 -3 -3 -4 -3 -2
8 8 9 5 5 10 9 5 8 10 9 6 6 3 5 6 5 5 3 3 3 3 3 2 3 4 4 4 3 3 3 2 2 1 1 -0 -1 -2 -3 -4 -4 -3 -3 -4
6 7 6 7 8 8 7 5 6 7 8 4 7 6 4 3 3 4 2 1 3 2 3 4 5 5 5 4 4 3 2 2 1 1 1 -0 -2 -3 -4 -4 -4 -4 -5 -5
4 6 9 5 7 9 8 5 5 7 8 2 6 5 -0 1 1 3 2 1 1 3 4 4 4 4 4 4 4 3 3 2 1 1 0 -1 -3 -4 -4 -5 -5 -5 -7 -6
4 4 8 6 7 7 2 1 5 7 8 -1 0 -1 -0 2 4 3 2 0 2 3 3 4 3 3 5 4 3 3 2 2 2 -1 -2 -4 -5 -5 -5 -6 -6 -7 -7 -7
5 6 5 5 6 7 2 3 6 6 0 -0 1 1 1 2 2 2 1 2 1 1 2 3 2 3 4 3 3 3 2 3 -0 -2 -3 -5 -5 -6 -6 -7 -8 -8 -8 -9
6 6 5 6 6 3 4 5 4 3 2 1 2 1 1 2 2 2 1 -1 0 1 2 3 2 3 3 3 2 2 2 -0 -2 -4 -5 -6 -6 -7 -8 -9 -9 -9 -9 -10
2 2 4 4 2 3 3 3 3 2 4 2 2 1 1 2 1 1 -1 -1 -1 1 1 3 1 1 1 2 1 1 -1 -2 -4 -5 -6 -7 -7 -8 -9 -10 -10 -11 -11 -12
3 2 0 1 2 3 3 2 3 2 2 2 1 1 0 -0 -0 -1 -2 -4 -2 0 2 1 1 0 2 2 0 -2 -3 -4 -5 -7 -8 -8 -9 -10 -10 -11 -11 -12 -12 -13
1 1 3 3 4 5 5 4 2 2 2 -0 -1 -1 -2 -1 -1 -2 -3 -1 -0 -0 1 -1 -1 -1 0 -1 -2 -3 -5 -6 -7 -8 -9 -9 -10 -10 -11 -12 -12 -13 -14 -15
Height
835 841 844 838 838 837 846 850 845 842 837 837 840 841 828 835 841 848 852 853 854 855 858 857 854 854 851 850 850 847 845 842 840 839 840 842 845 850 851 854 857 857 859 859
842 843 830 833 839 839 846 848 850 845 841 841 842 841 830 830 836 842 846 850 853 855 856 857 855 851 851 849 850 852 852 852 850 848 848 849 852 854 858 860 859 860 862 861
836 824 829 831 840 845 848 848 849 843 844 843 845 843 832 836 842 846 852 856 859 859 861 859 858 855 853 851 848 851 856 856 855 854 853 853 855 860 863 865 864 864 865 866
833 824 826 832 834 838 846 841 841 843 848 855 846 851 832 833 841 849 854 858 860 860 862 862 863 861 859 856 849 849 849 857 860 859 858 858 860 863 868 869 871 869 870 870
823 828 829 831 828 831 832 838 842 843 851 853 850 857 836 834 828 847 855 859 859 858 858 859 863 861 861 860 855 853 854 855 857 861 862 861 862 868 873 872 872 872 873 874
821 820 823 820 824 825 835 838 847 858 857 864 842 842 836 828 823 839 849 855 862 866 866 868 868 869 866 864 863 860 859 859 861 862 863 864 865 870 872 875 875 876 875 875
822 820 815 817 828 829 830 837 851 857 864 846 847 848 821 816 824 826 834 845 853 857 858 859 861 867 873 871 866 862 860 861 864 865 865 867 868 871 873 876 876 877 878 878
823 821 815 812 813 821 832 828 837 843 851 839 853 836 812 818 829 834 837 841 849 853 856 857 861 864 863 867 868 867 865 865 867 869 868 870 871 871 873 875 877 877 879 879
818 810 806 806 808 808 825 829 823 843 904 863 827 817 808 827 828 833 838 843 846 848 851 852 855 856 862 868 867 868 869 868 869 869 870 871 872 873 874 875 878 879 880 880
793 802 805 806 805 811 811 815 828 844 844 861 826 818 803 817 818 832 839 840 841 844 848 851 852 855 857 863 864 869 868 868 869 869 869 872 874 874 875 877 877 878 878 880
790 791 810 808 807 805 815 817 822 819 829 832 844 812 807 803 810 819 826 830 833 837 840 840 845 851 856 860 861 866 867 867 867 869 869 871 873 875 876 878 878 879 879 879
783 793 817 802 802 802 797 800 803 812 822 841 830 797 808 806 809 812 819 824 827 831 834 835 838 846 853 856 859 861 862 863 864 866 868 870 871 874 875 876 876 877 876 877
776 793 816 808 801 805 803 802 802 810 819 824 818 804 810 808 810 813 816 821 823 828 831 834 837 841 845 848 853 855 857 859 861 862 864 868 870 871 873 873 873 873 873 873
754 777 774 759 771 782 798 798 801 793 820 808 787 782 809 805 803 809 811 813 818 821 824 828 832 836 838 842 847 850 852 855 856 858 862 866 868 869 870 870 869 870 869 868
751 766 781 772 768 774 772 782 797 793 786 788 777 783 794 794 797 799 803 809 815 817 822 823 827 828 833 838 841 844 846 850 852 855 858 860 863 864 864 866 866 865 865 865
758 762 775 782 779 780 782 779 783 781 783 786 782 781 781 786 794 799 800 806 810 813 816 818 821 825 829 831 833 836 840 844 847 851 852 855 857 859 861 861 861 861 861 859
756 767 764 755 797 787 779 765 775 774 779 769 788 763 789 790 792 794 798 803 804 808 811 815 816 818 822 824 827 830 834 838 842 845 848 850 852 854 855 856 857 857 856 854
753 758 761 795 796 769 754 772 764 761 765 781 781 788 785 783 787 791 795 798 801 805 807 810 812 814 816 819 821 825 830 833 837 840 842 845 848 850 851 852 852 851 850 849
755 757 775 774 772 762 760 772 770 763 765 777 768 774 783 790 792 791 791 792 795 799 800 803 807 810 813 816 818 822 825 829 832 833 835 838 841 844 845 846 846 845 844 843
761 755 745 781 765 756 749 760 759 757 765 771 763 770 790 792 805 791 788 791 794 796 797 802 805 808 812 814 817 819 821 822 823 826 829 832 836 839 839 840 841 839 838 837
764 768 745 763 761 757 765 766 759 768 756 773 771 779 785 786 779 782 784 788 790 792 795 799 802 804 808 811 811 813 816 817 818 821 824 827 830 833 834 834 835 834 833 831
746 753 762 767 764 750 757 764 758 752 763 764 767 770 774 774 776 779 781 783 786 788 791 795 798 800 802 804 806 807 810 811 813 816 819 822 825 827 828 829 829 828 826 825
739 732 743 743 741 749 745 744 747 749 753 760 760 762 765 771 773 775 779 782 782 784 786 790 792 794 795 797 800 802 802 806 808 811 813 816 819 821 822 823 823 822 820 819
745 742 740 742 750 747 747 746 745 748 748 751 753 756 762 765 769 772 775 776 777 779 781 783 786 788 788 791 793 794 797 800 803 805 808 811 813 815 816 816 816 816 816 815
732 739 750 752 746 747 744 744 743 745 748 751 754 756 759 762 765 767 768 770 771 773 775 777 778 778 779 783 785 788 790 793 796 800 803 806 808 809 810 811 811 812 812 811
730 734 735 740 730 730 730 731 736 742 743 748 753 756 757 758 759 761 761 762 765 767 769 772 772 772 772 775 778 780 784 788 791 794 797 799 801 802 803 804 805 806 807 808
Wind_Speed
2 4 8 12 9 3 5 4 6 2 2 3 6 6 13 7 5 7 7 7 5 5 5 12 15 14 15 16 16 16 18 21 24 26 26 28 30 29 28 25 24 23 21 20
4 7 8 4 4 4 4 4 6 5 3 3 6 9 12 3 3 4 9 8 8 5 5 10 14 17 19 19 20 19 18 19 22 24 27 28 29 30 27 25 24 22 21 20
8 4 7 8 4 6 5 7 4 6 3 2 3 7 6 1 2 4 4 4 4 6 6 6 11 16 17 20 21 20 20 22 25 26 27 29 30 28 29 30 30 29 27 26
5 2 5 4 5 7 5 8 6 4 3 4 1 5 6 0 2 3 5 5 6 6 4 6 7 11 14 17 20 22 22 18 16 16 19 24 30 30 27 30 29 30 29 29
7 7 5 5 7 7 6 6 7 4 4 2 3 1 7 1 5 4 6 6 7 8 7 7 7 9 11 13 20 23 24 26 25 25 26 30 34 31 27 27 26 27 26 25
4 1 6 7 2 5 9 6 6 4 3 1 8 7 4 4 5 4 6 8 6 4 4 5 6 7 11 13 17 21 24 24 23 24 25 27 29 27 25 23 24 23 23 23
1 5 3 4 6 2 1 6 0 1 0 5 1 5 7 6 5 4 11 11 9 8 7 8 11 10 9 11 15 19 22 24 22 23 24 24 24 23 22 21 21 20 19 20
7 5 11 7 7 8 7 6 5 7 4 3 2 6 6 3 2 1 4 11 10 9 7 8 13 14 15 13 13 15 18 21 20 20 22 20 20 21 20 19 18 18 17 17
7 5 1 2 3 5 5 5 2 5 3 2 4 4 4 1 1 3 6 10 12 11 10 9 16 17 16 14 13 14 15 17 17 18 19 18 17 17 18 16 15 14 13 13
7 3 0 3 3 3 4 6 3 2 1 4 4 4 4 6 7 5 7 11 12 9 9 9 17 21 19 17 15 15 15 16 17 16 16 16 15 14 13 12 11 10 9 8
5 3 1 4 7 11 4 3 3 3 4 5 2 4 5 8 8 12 12 13 14 14 13 11 18 22 20 19 18 18 17 18 17 16 15 14 13 11 9 7 7 6 6 6
9 4 4 8 2 1 3 8 7 5 6 3 3 5 0 3 6 8 9 11 11 12 13 14 18 22 22 22 22 22 21 20 18 17 15 13 11 9 7 6 4 3 4 5
10 4 2 5 2 2 5 5 4 4 3 8 5 5 3 4 4 6 8 9 11 10 7 7 13 21 26 26 26 25 23 22 20 19 17 15 13 11 9 6 3 0 3 6
11 6 9 15 6 6 6 6 6 7 4 5 13 13 6 6 9 7 8 8 8 9 11 9 8 17 24 28 28 27 26 24 23 21 20 18 16 13 11 8 4 2 5 8
8 8 6 4 3 4 7 7 11 12 13 11 11 13 7 13 11 11 8 6 8 9 8 8 9 14 21 25 29 31 29 27 26 24 24 23 19 17 14 10 6 5 6 9
3 5 5 4 3 2 4 9 11 15 11 10 11 15 6 7 5 7 8 8 9 7 7 7 7 12 19 26 31 32 31 29 28 27 29 26 22 20 16 12 9 8 8 10
9 7 5 6 3 4 8 15 16 8 6 12 12 17 6 6 7 7 9 9 9 7 7 7 8 13 16 19 24 29 31 29 29 31 30 27 25 22 19 15 12 10 11 13
8 7 4 3 4 7 1 1 7 16 8 6 1 4 7 6 4 4 6 7 7 6 6 6 9 10 10 11 15 20 24 26 27 29 30 28 26 24 20 15 13 12 13 14
1 5 4 5 6 6 4 5 8 8 9 10 12 7 5 5 4 3 4 5 6 7 12 14 12 10 9 11 12 15 18 21 23 28 30 29 28 24 19 16 14 13 14 14
2 1 5 3 5 10 2 2 5 5 6 8 12 8 8 7 3 4 6 5 8 12 14 16 15 13 13 12 11 13 17 19 23 27 28 27 25 22 18 15 13 14 14 16
4 2 8 5 4 5 5 5 4 6 5 4 6 5 8 5 5 6 6 6 14 17 19 15 18 20 17 13 13 14 15 19 20 19 20 22 21 19 16 14 13 14 14 16
6 8 4 2 2 8 8 4 8 5 1 6 6 7 9 6 7 6 6 5 8 13 14 19 20 20 17 16 16 17 19 19 17 17 19 20 19 16 15 14 14 14 15 17
3 6 6 9 5 2 14 3 4 4 6 6 8 7 8 9 7 7 6 8 11 15 20 23 24 23 18 18 20 21 23 19 17 19 20 19 18 17 16 15 15 14 15 16
4 3 3 4 4 4 11 2 2 5 5 6 6 7 9 8 8 7 7 6 9 18 19 23 23 23 24 21 23 25 21 18 19 21 21 19 18 16 15 14 14 15 15 16
3 7 6 0 1 1 6 8 6 7 5 3 3 7 9 8 6 8 6 6 14 19 21 20 23 27 31 25 24 23 22 20 22 21 20 18 16 14 13 14 14 16 16 16
5 6 4 4 8 5 5 10 9 10 10 9 9 6 6 9 10 6 7 14 17 19 21 19 20 22 25 22 22 22 21 20 20 20 19 17 16 15 15 15 16 15 14 13
Wind_Direction
10 122 211 199 197 136 139 175 231 219 258 179 236 254 274 170 146 161 165 162 141 101 49 49 54 56 65 67 70 85 101 107 117 116 112 105 92 86 82 78 75 73 71 69
55 228 212 132 150 149 135 180 248 294 226 167 268 254 259 230 192 194 176 170 156 129 83 54 62 69 66 73 78 82 91 100 103 109 105 101 94 87 85 81 78 75 71 68
168 208 144 146 158 163 201 200 197 222 354 250 327 282 252 244 87 62 76 95 104 122 101 66 64 69 78 80 84 90 94 99 103 106 109 105 99 93 86 81 80 77 75 72
231 258 166 167 199 149 208 195 180 176 103 238 34 283 306 156 179 105 124 146 151 139 127 91 73 66 71 80 98 102 110 112 112 118 117 111 102 93 90 88 85 80 76 73
234 169 171 187 208 172 223 136 162 134 154 82 258 295 266 340 262 191 189 180 180 171 164 144 117 108 100 103 103 104 105 105 109 111 109 106 103 102 100 95 90 84 79 74
243 262 171 199 123 168 149 84 61 61 111 225 224 182 261 215 208 154 168 190 178 161 128 125 120 115 111 110 109 108 108 106 110 110 108 107 110 112 106 97 90 85 80 76
185 217 201 149 92 58 154 111 113 335 278 226 176 146 238 206 189 193 192 177 174 171 168 164 162 153 136 130 125 119 116 113 115 113 111 112 111 109 104 98 92 85 76 69
168 261 169 188 185 177 187 179 169 205 198 223 41 220 254 173 116 293 215 169 166 173 174 178 181 178 165 166 145 131 126 120 120 118 115 114 111 106 102 95 88 81 75 69
170 270 154 132 149 142 196 215 172 98 58 64 225 285 274 177 198 88 145 161 177 186 186 186 188 187 185 183 162 152 140 134 133 128 123 117 112 106 101 95 86 79 70 58
205 141 304 156 109 35 165 165 93 7 219 267 271 261 228 210 209 173 186 191 189 183 186 196 197 197 194 189 177 173 165 156 149 141 134 125 119 112 106 98 85 70 60 43
153 145 197 128 208 174 150 198 70 128 152 194 259 246 217 189 187 195 202 196 190 191 196 195 200 204 201 195 188 186 181 174 165 158 149 144 135 124 115 106 94 77 54 30
195 138 168 204 313 319 196 181 162 168 216 222 173 237 283 235 220 190 195 195 194 195 197 197 198 200 201 200 196 195 192 188 183 174 166 163 159 156 151 142 120 84 42 11
172 193 104 338 331 340 217 192 140 96 69 196 180 247 190 224 198 203 186 197 199 197 196 200 190 199 204 204 204 202 200 198 192 187 185 185 186 184 184 182 178 139 354 352
151 159 195 226 191 141 183 188 178 168 176 188 228 252 213 205 194 199 210 195 187 192 200 199 196 209 210 211 210 210 209 205 201 198 198 202 204 204 207 211 217 286 334 340
152 211 172 229 150 172 183 169 180 197 215 213 246 234 181 202 199 203 192 176 185 209 198 197 205 210 216 219 219 219 216 209 207 206 208 213 212 213 216 222 237 273 304 320
127 198 148 192 155 195 246 214 187 203 215 240 254 256 191 219 118 154 184 180 205 203 200 209 211 213 219 222 223 222 218 216 212 213 218 217 216 219 224 230 246 268 290 312
165 149 143 209 109 110 267 218 191 196 195 196 221 244 163 210 206 205 217 204 205 199 212 198 202 215 228 231 232 226 221 220 218 221 224 222 221 224 227 236 250 267 290 308
147 143 156 133 145 217 238 40 187 205 215 182 121 203 186 195 187 211 192 186 204 205 198 212 213 221 234 237 231 228 225 225 223 226 228 226 224 226 229 238 253 275 293 304
35 143 149 163 204 336 172 195 158 163 246 182 206 203 168 119 78 296 180 189 198 198 207 215 214 216 221 218 216 219 224 229 231 234 234 230 227 226 231 245 263 281 293 306
3 42 196 142 188 205 259 165 136 107 272 219 195 194 148 138 148 234 191 187 217 215 207 209 208 200 197 194 205 217 229 231 236 240 239 231 224 227 236 252 270 283 295 305
120 64 214 175 217 277 211 191 156 139 248 183 167 129 150 185 192 170 156 199 215 211 211 216 202 197 206 216 219 225 234 241 251 243 232 221 223 231 243 257 270 282 292 298
152 160 185 120 212 260 155 63 167 193 24 149 160 177 185 173 166 172 185 198 195 209 207 204 204 214 223 228 227 231 237 251 243 230 221 221 226 236 251 262 272 280 294 301
203 180 177 191 205 347 180 129 198 171 148 189 162 188 176 175 195 185 207 208 213 216 217 215 218 226 233 235 235 234 244 240 228 219 219 222 230 241 252 263 274 285 294 300
260 155 174 116 196 196 207 239 199 181 181 178 191 170 171 184 196 208 218 222 214 224 227 228 223 233 243 243 242 241 240 230 223 220 220 224 232 243 256 268 279 287 291 294
192 133 138 44 244 2 254 227 203 220 213 184 161 183 199 196 206 206 214 215 226 235 236 237 232 238 249 255 243 236 230 225 220 219 221 227 238 250 261 271 277 282 286 289
180 151 164 207 194 169 212 208 191 208 216 195 190 213 216 193 215 195 232 233 234 240 246 245 247 247 253 248 239 227 223 221 219 218 222 231 242 251 258 264 271 270 273 277